Location: Poughquag
(41.6090°N, 73.6820°W)
Time: 03:37:45
(UTC-04:00)

Altair - Pass Details

Date: 04 June 2020
Orbit: 1501 x 1683 km, 47.2° (Epoch: 06 July)

Event Time Altitude Azimuth Distance (km) Brightness Sun altitude
Rises 01:09:16 0° 281° (W) 4,883 10.2 -25.8°
Reaches altitude 10° 01:12:27 10° 284° (WNW) 3,912 9.7 -25.7°
Maximum altitude 01:22:30 65° 6° (N) 1,819 8.0 -25.5°
Drops below altitude 10° 01:32:36 10° 88° (E) 3,937 9.8 -25.3°
Sets 01:35:49 0° 91° (E) 4,914 10.3 -25.1°
